EW7966 Weather Reports


Display with metric or nautical units.
time (UTC)temp
F
wind
direction
speed
MPH
gust
MPH
rain 1hr
in
rain 24hr
in
rain mn
in
humidity
%
barometer
mb
20240222233506 37 342 9.0 13.0 0.00 0.00 0.00 69 1033.2
20240222233006 37 296 8.0 11.0 0.00 0.00 0.00 69 1033.2
20240222233004 37 296 8.0 11.0 0.00 0.00 0.00 69 1034.9
20240222232504 37 290 8.0 11.0 0.00 0.00 0.00 70 1033.2
20240222232004 37 318 7.0 11.0 0.00 0.00 0.00 70 1033.2
20240222231504 36 341 8.0 12.0 0.00 0.00 0.00 72 1033.2
20240222231004 36 326 9.0 14.0 0.00 0.00 0.00 71 1033.3
20240222230513 36 331 9.0 16.0 0.00 0.00 0.00 69 1033.2
20240222230004 37 325 11.0 16.0 0.00 0.00 0.00 65 1034.7
20240222225504 38 355 7.0 14.0 0.00 0.00 0.00 65 1033.2
20240222225004 38 355 11.0 15.0 0.00 0.00 0.00 65 1033.2
20240222224504 37 317 11.0 15.0 0.00 0.00 0.00 66 1033.2
20240222224005 37 345 11.0 15.0 0.00 0.00 0.00 66 1033.2
20240222223005 37 339 11.0 17.0 0.00 0.00 0.00 69 1033.3
20240222223003 37 339 11.0 17.0 0.00 0.00 0.00 69 1034.7
20240222222504 37 345 10.0 17.0 0.00 0.00 0.00 69 1033.1
20240222222004 37 340 10.0 16.0 0.00 0.00 0.00 70 1033.2
20240222221505 36 13 11.0 17.0 0.00 0.00 0.00 69 1033.2
20240222221003 37 337 14.0 17.0 0.00 0.00 0.00 68 1033.1
20240222220503 37 321 10.0 18.0 0.00 0.00 0.00 67 1033.1
20240222220006 37 325 9.0 18.0 0.00 0.00 0.00 67 1033.0
20240222215510 37 350 11.0 17.0 0.00 0.00 0.00 67 1033.0
20240222215003 38 315 12.0 17.0 0.00 0.00 0.00 64 1032.9
20240222214504 38 310 12.0 17.0 0.00 0.00 0.00 64 1032.9
20240222213503 37 331 8.0 20.0 0.00 0.00 0.00 67 1032.9
20240222213006 38 5 14.0 20.0 0.00 0.00 0.00 67 1032.9
20240222213004 38 5 13.0 20.0 0.00 0.00 0.00 67 1034.0
20240222212512 37 344 8.0 16.0 0.00 0.00 0.00 68 1032.9
20240222212012 37 13 11.0 16.0 0.00 0.00 0.00 68 1033.0
20240222211526 37 360 10.0 17.0 0.00 0.00 0.00 71 1033.9
20240222211512 37 360 11.0 17.0 0.00 0.00 0.00 71 1032.9
20240222211012 37 355 12.0 17.0 0.00 0.00 0.00 69 1032.9
20240222210512 37 326 11.0 20.0 0.00 0.00 0.00 67 1032.9
20240222210006 37 360 14.0 20.0 0.00 0.00 0.00 66 1032.9
20240222210003 37 360 14.0 20.0 0.00 0.00 0.00 66 1033.7
20240222205503 37 344 8.0 18.0 0.00 0.00 0.00 66 1032.9
20240222205004 37 360 11.0 18.0 0.00 0.00 0.00 65 1032.9
20240222204504 37 338 9.0 16.0 0.00 0.00 0.00 67 1032.9
20240222204502 37 338 9.0 16.0 0.00 0.00 0.00 67 1033.6
20240222203004 37 28 9.0 14.0 0.00 0.00 0.00 73 1033.0
20240222202504 37 20 11.0 14.0 0.00 0.00 0.00 70 1033.0
20240222202004 37 16 9.0 14.0 0.00 0.00 0.00 68 1032.9
20240222201507 36 326 9.0 14.0 0.00 0.00 0.00 69 1033.5
20240222201006 37 355 10.0 14.0 0.00 0.00 0.00 69 1033.1
20240222200006 37 305 10.0 14.0 0.00 0.00 0.00 71 1033.0
20240222200003 37 305 9.0 14.0 0.00 0.00 0.00 71 1033.3
20240222195004 37 355 8.0 16.0 0.00 0.00 0.00 69 1033.1
20240222194503 36 331 11.0 16.0 0.00 0.00 0.00 68 1033.2
20240222194005 37 292 11.0 16.0 0.00 0.00 0.00 68 1033.1
20240222193504 37 336 10.0 16.0 0.00 0.00 0.00 70 1033.1
20240222193005 36 346 8.0 16.0 0.00 0.00 0.00 73 1033.1
20240222193002 36 346 8.0 16.0 0.00 0.00 0.00 73 1033.3
20240222192504 36 355 10.0 15.0 0.00 0.00 0.00 76 1033.1
20240222192003 35 355 11.0 16.0 0.00 0.00 0.00 77 1033.1
20240222191504 35 345 10.0 16.0 0.00 0.00 0.00 76 1033.2
20240222191003 35 360 11.0 16.0 0.00 0.00 0.00 76 1033.3
20240222190526 36 355 9.0 13.0 0.00 0.00 0.00 75 1033.3
20240222190005 36 313 9.0 16.0 0.00 0.00 0.00 74 1033.4
20240222185504 36 36 6.0 17.0 0.00 0.00 0.00 77 1033.3
20240222185004 35 355 13.0 17.0 0.00 0.00 0.00 77 1033.4
20240222184506 37 20 10.0 14.0 0.00 0.00 0.00 76 1033.3
20240222184503 37 20 9.0 14.0 0.00 0.00 0.00 76 1033.2
20240222184004 36 12 10.0 14.0 0.00 0.00 0.00 77 1033.3
20240222183503 35 16 11.0 14.0 0.00 0.00 0.00 78 1033.4
20240222183004 35 348 11.0 16.0 0.00 0.00 0.00 76 1033.4
20240222183002 35 348 11.0 16.0 0.00 0.00 0.00 76 1033.4
20240222182004 36 360 9.0 13.0 0.00 0.00 0.00 79 1033.5
20240222181508 35 5 7.0 13.0 0.00 0.00 0.00 81 1033.5
20240222181505 35 5 8.0 13.0 0.00 0.00 0.00 81 1033.6
20240222180504 35 15 9.0 13.0 0.00 0.00 0.00 80 1033.6
20240222180006 36 31 8.0 13.0 0.00 0.00 0.00 79 1033.4
20240222180003 36 31 7.0 13.0 0.00 0.00 0.00 79 1033.2
20240222175504 35 348 8.0 13.0 0.00 0.00 0.00 81 1033.5
20240222175004 34 328 8.0 13.0 0.00 0.00 0.00 80 1033.4
20240222174504 35 355 8.0 13.0 0.00 0.00 0.00 81 1033.4
20240222174003 35 344 6.0 12.0 0.00 0.00 0.00 82 1033.4
20240222173504 35 5 7.0 12.0 0.00 0.00 0.00 81 1033.3
20240222173006 35 26 8.0 12.0 0.00 0.00 0.00 82 1033.2
20240222173003 35 26 7.0 12.0 0.00 0.00 0.00 82 1032.7
20240222172012 34 339 6.0 12.0 0.00 0.00 0.00 84 1033.1
20240222171511 34 342 6.0 12.0 0.00 0.00 0.00 85 1032.5
20240222171012 33 340 6.0 11.0 0.00 0.00 0.00 85 1033.1
20240222170511 33 9 6.0 10.0 0.00 0.00 0.00 87 1033.1
20240222170006 33 18 8.0 12.0 0.00 0.00 0.00 87 1033.0
20240222165003 33 346 8.0 13.0 0.00 0.00 0.00 86 1033.0
20240222164505 33 360 10.0 13.0 0.00 0.00 0.00 86 1032.9
20240222164503 33 360 9.0 13.0 0.00 0.00 0.00 86 1032.1
20240222164005 33 355 10.0 12.0 0.00 0.00 0.00 86 1032.9
20240222163503 33 19 7.0 12.0 0.00 0.00 0.00 86 1032.8
20240222163003 33 345 5.0 11.0 0.00 0.00 0.00 86 1031.9
20240222162506 33 355 9.0 12.0 0.00 0.00 0.00 86 1032.7
20240222162004 33 10 7.0 13.0 0.00 0.00 0.00 86 1032.6
20240222161503 33 344 9.0 13.0 0.00 0.00 0.00 85 1032.6
20240222161004 33 5 9.0 15.0 0.00 0.00 0.00 85 1032.6
20240222160504 34 348 11.0 15.0 0.00 0.00 0.00 83 1032.6
20240222160006 34 355 7.0 10.0 0.00 0.00 0.00 84 1031.4
20240222155505 34 355 5.0 12.0 0.00 0.00 0.00 84 1032.4
20240222154502 33 5 7.0 12.0 0.00 0.00 0.00 84 1031.2
20240222154004 33 344 9.0 12.0 0.00 0.00 0.00 84 1032.2
20240222153505 33 10 7.0 12.0 0.00 0.00 0.00 83 1032.0
20240222153007 33 347 9.0 13.0 0.00 0.00 0.00 83 1030.7
20240222153005 33 347 10.0 13.0 0.00 0.00 0.00 83 1031.8
20240222152505 33 347 9.0 13.0 0.00 0.00 0.00 84 1031.8
20240222151505 33 355 10.0 12.0 0.00 0.00 0.00 84 1031.7
20240222151503 33 355 9.0 12.0 0.00 0.00 0.00 84 1030.6
20240222151004 33 5 8.0 12.0 0.00 0.00 0.00 85 1031.5
20240222150504 33 355 6.0 10.0 0.00 0.00 0.00 85 1031.5
20240222150006 33 341 7.0 10.0 0.00 0.00 0.00 85 1031.6
20240222150004 33 341 6.0 10.0 0.00 0.00 0.00 85 1030.4
20240222145505 33 355 6.0 10.0 0.00 0.00 0.00 84 1031.5
20240222144504 33 331 4.0 5.0 0.00 0.00 0.00 86 1031.5
20240222144006 32 336 3.0 5.0 0.00 0.00 0.00 87 1031.5
20240222143504 32 340 4.0 8.0 0.00 0.00 0.00 86 1031.5
20240222143006 32 312 4.0 8.0 0.00 0.00 0.00 86 1031.4
20240222143002 32 312 4.0 8.0 0.00 0.00 0.00 86 1030.2
20240222142005 32 313 5.0 8.0 0.00 0.00 0.00 87 1031.3
20240222141503 32 302 4.0 7.0 0.00 0.00 0.00 88 1030.0
20240222141005 32 286 4.0 5.0 0.00 0.00 0.00 88 1031.1
20240222140505 32 278 4.0 5.0 0.00 0.00 0.00 89 1031.0
20240222140003 31 292 2.0 4.0 0.00 0.00 0.00 90 1029.8
20240222135504 31 292 3.0 4.0 0.00 0.00 0.00 90 1030.9
20240222135004 31 292 3.0 4.0 0.00 0.00 0.00 90 1030.8
20240222134508 31 292 2.0 4.0 0.00 0.00 0.00 90 1029.5
20240222134504 31 292 3.0 4.0 0.00 0.00 0.00 90 1030.8
20240222133505 31 323 3.0 4.0 0.00 0.00 0.00 90 1030.7
20240222133005 31 323 3.0 4.0 0.00 0.00 0.00 90 1029.3
20240222132504 31 360 0.0 2.0 0.00 0.00 0.00 89 1030.7
20240222132005 31 360 1.0 4.0 0.00 0.00 0.00 89 1030.6
20240222131513 31 360 1.0 4.0 0.00 0.00 0.00 89 1029.1
20240222131511 31 360 1.0 4.0 0.00 0.00 0.00 89 1030.6
20240222131012 31 9 1.0 2.0 0.00 0.00 0.00 89 1030.6
20240222130511 31 9 1.0 2.0 0.00 0.00 0.00 89 1030.5
20240222130006 31 9 0.0 3.0 0.00 0.00 0.00 89 1030.5
20240222130004 31 9 0.0 3.0 0.00 0.00 0.00 89 1028.9
20240222125504 31 9 0.0 5.0 0.00 0.00 0.00 89 1030.5
20240222124503 31 14 3.0 5.0 0.00 0.00 0.00 89 1030.3
20240222124003 31 9 3.0 6.0 0.00 0.00 0.00 89 1030.3
20240222123004 31 21 4.0 8.0 0.00 0.00 0.00 89 1030.2
20240222123002 31 21 4.0 8.0 0.00 0.00 0.00 89 1028.6
20240222121505 31 11 3.0 8.0 0.00 0.00 0.00 89 1028.5
20240222120006 31 14 1.0 2.0 0.00 0.00 0.00 88 1029.8
20240222120003 31 14 1.0 2.0 0.00 0.00 0.00 88 1028.2
20240222115504 31 14 1.0 2.0 0.00 0.00 0.00 88 1029.7
20240222115004 31 14 1.0 3.0 0.00 0.00 0.00 89 1029.7
20240222114506 31 14 0.0 6.0 0.00 0.00 0.00 90 1028.2
20240222114004 31 28 4.0 9.0 0.00 0.00 0.00 91 1029.6
20240222113005 29 9 5.0 10.0 0.00 0.00 0.00 95 1029.6
20240222113002 29 9 5.0 10.0 0.00 0.00 0.00 95 1028.1
20240222112504 28 5 5.0 10.0 0.00 0.00 0.00 96 1029.7
20240222112004 26 32 3.0 5.0 0.00 0.00 0.00 95 1029.7
20240222111504 25 187 0.0 2.0 0.00 0.00 0.00 94 1029.7
20240222111502 25 187 0.0 2.0 0.00 0.00 0.00 94 1028.2
20240222111003 24 187 0.0 3.0 0.00 0.00 0.00 94 1029.6
20240222110504 23 187 2.0 3.0 0.00 0.00 0.00 91 1029.7
20240222110006 24 187 1.0 2.0 0.00 0.00 0.00 91 1029.7
20240222110004 24 187 0.0 2.0 0.00 0.00 0.00 91 1028.1
20240222105504 24 187 1.0 4.0 0.00 0.00 0.00 94 1029.7
20240222105004 24 187 1.0 6.0 0.00 0.00 0.00 93 1029.6
20240222104505 23 188 3.0 6.0 0.00 0.00 0.00 92 1029.6
20240222104503 23 188 3.0 6.0 0.00 0.00 0.00 92 1027.9
20240222103503 24 188 0.0 2.0 0.00 0.00 0.00 91 1029.3
20240222103005 25 188 0.0 5.0 0.00 0.00 0.00 94 1029.2
20240222103002 25 188 0.0 5.0 0.00 0.00 0.00 94 1027.5
20240222102004 23 200 4.0 6.0 0.00 0.00 0.00 93 1029.4
20240222101504 22 209 4.0 6.0 0.00 0.00 0.00 91 1029.4
20240222101502 22 209 4.0 6.0 0.00 0.00 0.00 91 1027.5
20240222100505 22 185 1.0 3.0 0.00 0.00 0.00 91 1029.0
20240222100006 22 185 1.0 3.0 0.00 0.00 0.00 89 1029.0
20240222100004 22 185 0.0 3.0 0.00 0.00 0.00 89 1026.9
20240222095504 24 185 2.0 3.0 0.00 0.00 0.00 91 1028.8
20240222095004 25 185 0.0 3.0 0.00 0.00 0.00 93 1028.7
20240222094503 24 185 1.0 4.0 0.00 0.00 0.00 93 1026.5
20240222094004 24 185 2.0 4.0 0.00 0.00 0.00 93 1028.7
20240222093504 23 185 2.0 4.0 0.00 0.00 0.00 92 1028.7
20240222093004 23 198 2.0 5.0 0.00 0.00 0.00 91 1026.4
20240222092504 24 209 4.0 5.0 0.00 0.00 0.00 91 1028.4
20240222092007 24 209 0.0 1.0 0.00 0.00 0.00 91 1028.4
20240222091513 24 209 0.0 3.0 0.00 0.00 0.00 91 1028.5
20240222090006 24 208 3.0 6.0 0.00 0.00 0.00 93 1028.6
20240222090003 24 208 3.0 6.0 0.00 0.00 0.00 93 1026.1
20240222085504 23 200 3.0 5.0 0.00 0.00 0.00 91 1028.6
20240222085005 24 200 2.0 3.0 0.00 0.00 0.00 91 1028.5
20240222084503 24 200 0.0 2.0 0.00 0.00 0.00 92 1025.9
20240222084003 24 200 1.0 4.0 0.00 0.00 0.00 92 1028.5
20240222083504 24 200 1.0 4.0 0.00 0.00 0.00 91 1028.4
20240222083004 24 202 3.0 4.0 0.00 0.00 0.00 90 1028.5
20240222083002 24 202 3.0 4.0 0.00 0.00 0.00 90 1025.9
20240222082004 24 180 2.0 3.0 0.00 0.00 0.00 90 1028.5
20240222081505 25 180 1.0 3.0 0.00 0.00 0.00 90 1028.5
20240222080504 24 180 1.0 3.0 0.00 0.00 0.00 91 1028.3
20240222080005 24 180 2.0 3.0 0.00 0.00 0.00 87 1028.3
20240222080002 24 180 2.0 3.0 0.00 0.00 0.00 87 1025.6
20240222075504 25 178 3.0 3.0 0.00 0.00 0.00 86 1028.3
20240222074506 26 177 0.0 2.0 0.00 0.00 0.00 88 1025.6
20240222073503 26 177 2.0 3.0 0.00 0.00 0.00 87 1028.3
20240222073004 27 134 2.0 3.0 0.00 0.00 0.00 82 1028.4
20240222072503 29 134 1.0 3.0 0.00 0.00 0.00 82 1028.3
20240222072003 30 134 2.0 3.0 0.00 0.00 0.00 87 1028.3
20240222071504 29 134 2.0 3.0 0.00 0.00 0.00 88 1025.2
20240222071004 29 134 2.0 3.0 0.00 0.00 0.00 89 1028.2
20240222070504 28 134 2.0 3.0 0.00 0.00 0.00 83 1028.1
20240222070014 29 134 2.0 4.0 0.00 0.00 0.00 80 1028.0
20240222070012 29 134 1.0 4.0 0.00 0.00 0.00 80 1024.9
20240222065004 31 65 3.0 4.0 0.00 0.00 0.00 83 1027.9
20240222064504 32 65 2.0 4.0 0.00 0.00 0.00 81 1024.7
20240222064004 32 65 3.0 4.0 0.00 0.00 0.00 81 1027.7
20240222063006 32 65 3.0 4.0 0.00 0.00 0.00 82 1024.7
20240222062504 31 65 3.0 5.0 0.00 0.00 0.00 81 1027.8
20240222062005 32 65 3.0 5.0 0.00 0.00 0.00 81 1027.8
20240222061505 31 65 3.0 5.0 0.00 0.00 0.00 82 1024.7
20240222061005 31 65 1.0 3.0 0.00 0.00 0.00 82 1028.0
20240222060504 31 65 1.0 2.0 0.00 0.00 0.00 77 1028.1
20240222060003 32 65 1.0 3.0 0.00 0.00 0.00 77 1024.9
20240222055003 32 65 1.0 4.0 0.00 0.00 0.00 72 1028.1
20240222054504 33 65 3.0 4.0 0.00 0.00 0.00 76 1028.1
20240222053504 33 56 3.0 5.0 0.00 0.00 0.00 76 1028.1
20240222053004 32 64 3.0 5.0 0.00 0.00 0.00 76 1028.1
20240222052012 32 76 5.0 6.0 0.00 0.00 0.00 75 1027.9
20240222051513 32 78 4.0 6.0 0.00 0.00 0.00 73 1027.9
20240222051511 32 78 4.0 6.0 0.00 0.00 0.00 73 1024.5
20240222051011 33 75 4.0 6.0 0.00 0.00 0.00 74 1027.9
20240222050511 33 69 2.0 4.0 0.00 0.00 0.00 73 1027.9
20240222050013 33 57 0.0 3.0 0.00 0.00 0.00 72 1024.3
20240222050005 33 57 0.0 3.0 0.00 0.00 0.00 72 1027.7
20240222045505 33 57 1.0 3.0 0.00 0.00 0.00 71 1027.7
20240222045004 33 48 2.0 5.0 0.00 0.00 0.00 74 1027.7
20240222044505 32 44 3.0 5.0 0.00 0.00 0.00 77 1027.6
20240222044503 32 44 2.0 5.0 0.00 0.00 0.00 77 1024.2
20240222044004 30 52 4.0 5.0 0.00 0.00 0.00 84 1027.5
20240222043505 27 211 0.0 1.0 0.00 0.00 0.00 85 1027.5
20240222043004 27 211 0.0 2.0 0.00 0.00 0.00 86 1027.5
20240222042505 26 211 2.0 2.0 0.00 0.00 0.00 82 1027.4
20240222042004 27 211 0.0 3.0 0.00 0.00 0.00 84 1027.3
20240222041506 27 211 1.0 3.0 0.00 0.00 0.00 79 1023.6
20240222041034 28 211 1.0 3.0 0.00 0.00 0.00 78 1027.2
20240222040005 28 211 2.0 4.0 0.00 0.00 0.00 83 1027.1
20240222040003 28 211 1.0 4.0 0.00 0.00 0.00 83 1023.5
20240222035505 27 211 2.0 4.0 0.00 0.00 0.00 88 1027.0
20240222035005 26 211 2.0 4.0 0.00 0.00 0.00 83 1027.0
20240222034504 27 211 4.0 5.0 0.00 0.00 0.00 82 1026.9
20240222034502 27 211 3.0 5.0 0.00 0.00 0.00 82 1023.2
20240222034007 27 211 3.0 5.0 0.00 0.00 0.00 82 1026.8
20240222033504 27 211 3.0 4.0 0.00 0.00 0.00 79 1026.7
20240222033003 28 211 3.0 4.0 0.00 0.00 0.00 78 1022.8
20240222032504 30 211 3.0 4.0 0.00 0.00 0.00 77 1026.6
20240222032012 30 211 2.0 5.0 0.00 0.00 0.00 80 1026.4
20240222031513 29 211 4.0 5.0 0.00 0.00 0.00 77 1026.4
20240222030512 31 211 3.0 5.0 0.00 0.00 0.00 75 1026.3
20240222030005 33 211 3.0 4.0 0.00 0.00 0.00 69 1026.2
20240222030003 33 211 2.0 4.0 0.00 0.00 0.00 69 1022.1
20240222025504 35 211 1.0 2.0 0.00 0.00 0.00 69 1026.2
20240222025003 35 211 1.0 3.0 0.00 0.00 0.00 72 1026.1
20240222024504 35 211 1.0 4.0 0.00 0.00 0.00 71 1022.1
20240222024005 34 211 3.0 4.0 0.00 0.00 0.00 71 1026.0
20240222023504 35 224 3.0 3.0 0.00 0.00 0.00 65 1026.0
20240222023006 38 286 2.0 3.0 0.00 0.00 0.00 65 1025.9
20240222023003 38 286 1.0 3.0 0.00 0.00 0.00 65 1021.8
20240222022004 38 5 0.0 3.0 0.00 0.00 0.00 64 1025.8
20240222021505 38 5 1.0 4.0 0.00 0.00 0.00 64 1025.8
20240222021503 38 5 0.0 4.0 0.00 0.00 0.00 64 1021.6
20240222021004 38 5 2.0 8.0 0.00 0.00 0.00 64 1025.6
20240222020504 38 5 5.0 10.0 0.00 0.00 0.00 63 1025.5
20240222020006 39 360 5.0 10.0 0.00 0.00 0.00 62 1025.6
20240222020004 39 360 5.0 10.0 0.00 0.00 0.00 62 1021.5
20240222015504 39 355 4.0 13.0 0.00 0.00 0.00 59 1025.5
20240222015004 40 348 6.0 13.0 0.00 0.00 0.00 56 1025.4
20240222014503 41 22 9.0 18.0 0.00 0.00 0.00 50 1025.3
20240222014004 42 360 11.0 21.0 0.00 0.00 0.00 42 1025.2
20240222013504 44 360 16.0 21.0 0.00 0.00 0.00 37 1024.7
20240222013004 44 355 10.0 15.0 0.00 0.00 0.00 29 1024.4
20240222012504 45 13 7.0 12.0 0.00 0.00 0.00 25 1024.4
20240222012005 45 322 8.0 11.0 0.00 0.00 0.00 23 1024.3
20240222011507 46 297 6.0 12.0 0.00 0.00 0.00 22 1019.8
20240222011004 47 265 8.0 14.0 0.00 0.00 0.00 21 1023.9
20240222010512 47 280 9.0 14.0 0.00 0.00 0.00 20 1023.8
20240222010005 47 278 9.0 13.0 0.00 0.00 0.00 20 1019.4
20240222005503 48 257 9.0 14.0 0.00 0.00 0.00 20 1023.6
20240222005004 48 266 10.0 18.0 0.00 0.00 0.00 19 1023.5
20240222004507 49 254 12.0 18.0 0.00 0.00 0.00 18 1019.2
20240222004505 49 248 13.0 18.0 0.00 0.00 0.00 18 1023.5
20240222004004 49 265 11.0 15.0 0.00 0.00 0.00 18 1023.5
20240222003504 49 269 10.0 13.0 0.00 0.00 0.00 19 1023.5
20240222003006 50 274 8.0 12.0 0.00 0.00 0.00 19 1023.5
20240222003003 50 274 7.0 12.0 0.00 0.00 0.00 19 1019.2
20240222002504 50 285 8.0 14.0 0.00 0.00 0.00 19 1023.5
20240222002004 50 270 11.0 17.0 0.00 0.00 0.00 18 1023.5
20240222001504 50 265 13.0 21.0 0.00 0.00 0.00 18 1019.1
20240222000503 50 242 14.0 24.0 0.00 0.00 0.00 18 1023.1
20240222000005 51 262 16.0 24.0 0.00 0.00 0.00 17 1023.1
20240221235504 52 261 15.0 28.0 0.00 0.00 0.00 17 1023.0
20240221235004 52 265 20.0 28.0 0.00 0.00 0.00 16 1022.8
20240221234507 52 259 15.0 29.0 0.00 0.00 0.00 16 1018.5
20240221234505 52 259 15.0 29.0 0.00 0.00 0.00 16 1022.8